Погода в Лудхияне

Индия     30°54′11″N   75°51′04″E
темп.,
°C
ветер,
м/с
пор.,
м/с
влажн.,
%
обл.,
%
осадки,
мм/ч
давл.,
гПа
погр.,
м
8 мая, сб
сб823:30+26ююв125144 1.3 100835
02:30+24юв25565 0.0 1008150
05:30+23вюв35585 0.0 1008111
08:30+29юв33415 0.0 1010565
11:30+36ю12230 0.0 10091945
14:30+38сз341893 0.0 10054270
17:30+36с662034 0.0 10032146
20:30+29всв473587 0.0 1005215
9 мая, вс
вс923:30+28юз123899 0.0 100658
02:30+28в2236100 0.0 100434
05:30+26в3439100 0.0 100588
08:30+32вюв342514 0.0 1007510
11:30+39ююв23172 0.0 10063054
14:30+39з331495 0.0 10024092
17:30+38ююз231551 0.4 10012064
20:30+29ссз463629 0.0 1005269
10 мая, пн
пн1023:30+29сз123786 0.1 100453
02:30+27юв223992 0.0 100244
05:30+27св223974 0.0 100320
08:30+32вюв222812 0.3 1005545
11:30+39св01175 0.3 10031824
14:30+41сз24131 0.0 10004077
17:30+40ссз351226 0.0 9974238
20:30+33зюз6112360 0.3 1000436
11 мая, вт
вт1123:30+31зсз242921 0.4 100096
02:30+29ю12335 0.0 100048
05:30+28зюз223588 0.0 100123
08:30+32ююв2226100 0.0 1002586
11:30+39юз3216100 0.0 10012180
14:30+41зюз441393 0.0 9983976
17:30+41зсз441220 0.0 9964365
20:30+30всв1117324 0.1 999513
12 мая, ср
ср1223:30+29вюв49344 0.1 999234
02:30+27св3741100 1.1 1000157
05:30+26в3743100 1.3 1000194
08:30+31ююв4530100 0.2 1002489
11:30+37ююв6521100 0.2 10012186
14:30+34ю132590 0.0 999668
17:30+30ссв101137100 0.1 998598
20:30+24вюв71366100 0.3 1002592